Regional Weather Roundup
Issued by NWS Goodland, KS

Home | Current Version | Previous Version | Text Only | Print | Product List | Glossary On
Versions: 1 2 3 4 5 6 7 8 9 10 11 12 13 14 15 16 17 18 19 20 21 22 23 24 25 26 27 28 29 30 31 32 33 34 35 36 37 38 39 40 41 42 43 44 45 46 47 48 49 50
000
ASUS43 KGLD 281308
RWRGLD

GOODLAND FORECAST AREA HOURLY WEATHER ROUNDUP
NATIONAL WEATHER SERVICE GOODLAND KS
600 AM MST WED JAN 28 2015

...OFFICIAL OBSERVATIONS...

CITY           SKY/WX    TMP DP  RH WIND       PRES   REMARKS
GOODLAND KS    PTCLDY    40  30  67 NW10      29.93R
HILL CITY KS   CLEAR     36  28  73 W12       29.84R
IMPERIAL NEB   MOCLDY    41  29  62 NW9       29.90R
MCCOOK NEB     PTCLDY    33  27  78 W10       29.86R
AKRON CO       MOCLDY    39  29  67 W16       29.97R
BURLINGTON CO  MOCLDY    37  29  72 NW12      29.96R
LIMON CO       CLOUDY    37  24  59 W12       30.02R
$$

...UNOFFICIAL OBSERVATIONS...

CITY           SKY/WX    TMP DP  RH WIND       PRES   REMARKS
COLBY KS       CLEAR     39  34  81 NW12      29.91R
GOVE KS          N/A     34  32  92 MISG        N/A
NORTON KS      CLEAR     36  27  69 W8        29.82R
SHARON SPRINGS   N/A     46  32  58 N15         N/A
KIT CARSON CO    N/A     42  28  56 MISG        N/A
YUMA CO          N/A     36  29  74 W8          N/A
$$


USA.gov is the U.S. government's official web portal to all federal, state and local government web resources and services.